Regional Weather Roundup
Issued by NWS

Home | Current Version | Previous Version | Graphics & Text | Print | Product List | Glossary On
Versions: 1 2 3 4 5 6 7 8 9 10 11 12 13 14 15 16 17 18 19 20 21 22 23 24 25 26 27 28 29 30 31 32 33 34 35 36 37 38 39 40 41 42 43 44 45 46 47 48 49 50
000
ASUS43 KMKX 242310
RWRWI

WISCONSIN REGIONAL WEATHER ROUNDUP
NATIONAL WEATHER SERVICE MILWAUKEE/SULLIVAN WI
600 PM CDT THU JUL 24 2014

NOTE: "FAIR" INDICATES FEW OR NO CLOUDS BELOW 12,000 FEET WITH NO
SIGNIFICANT WEATHER AND/OR OBSTRUCTIONS TO VISIBILITY.

WIZ001-002-006>008-014>016-023>028-250000-
NORTHWEST WISCONSIN

CITY           SKY/WX    TMP DP  RH WIND       PRES   REMARKS
SUPERIOR ARPT  CLOUDY    66  56  70 NE6       29.93F
ASHLAND        PTSUNNY   73  60  63 NW3       29.97F
HAYWARD        CLOUDY    74  57  55 S7        29.97F
SIREN          CLOUDY    77  56  48 S8        29.94F
RICE LAKE      CLOUDY    75  54  48 SE9       29.98F
LADYSMITH      PTSUNNY   74  56  54 S6        30.01F
EAU CLAIRE     CLOUDY    78  55  44 S12       29.98F
MENOMONIE      CLOUDY    76  58  53 SE8       29.97F
NEW RICHMOND   CLOUDY    74  57  55 SE10      29.92F
OSCEOLA        CLOUDY    76  60  57 SE8       29.94S
$$

WIZ003>005-009-010-017-018-250000-
NORTH CENTRAL WISCONSIN

CITY           SKY/WX    TMP DP  RH WIND       PRES   REMARKS
WOODRUFF       PTSUNNY   77  53  43 SW8       30.02F
RHINELANDER    PTSUNNY   73  52  47 SW5       30.04F
EAGLE RIVER    PTSUNNY   71  50  47 CALM      30.03F
LAND O LAKES   MOSUNNY   74  48  39 SW6       30.03F
PHILLIPS       CLOUDY    73  53  49 S8        30.01F
TOMAHAWK       PTSUNNY   71  53  52 CALM      30.04F
MEDFORD        PTSUNNY   72  54  53 S3        30.03F
MERRILL        PTSUNNY   74  53  48 SW7       30.04F
$$

WIZ029-030-035-036-043>047-250000-
CENTRAL WISCONSIN

CITY           SKY/WX    TMP DP  RH WIND       PRES   REMARKS
WAUSAU         MOSUNNY   74  50  42 SW6       30.03F
MOSINEE        PTSUNNY   73  52  46 S5        30.06F
MARSHFIELD     PTSUNNY   74  53  48 CALM      30.04F
STEVENS POINT  PTSUNNY   75  51  42 W9        30.05F
WAUPACA        MOSUNNY   79  48  33 CALM      30.04F
WAUTOMA        PTSUNNY   79  53  40 SW8       30.05F
WISC RAPIDS    MOSUNNY   77  51  40 W5        30.05F
CAMP DOUGLAS   CLOUDY    75  57  53 W8        30.06F
$$

WIZ011>013-019>022-031-037>040-048>050-250000-
NORTHEAST WISCONSIN

CITY           SKY/WX    TMP DP  RH WIND       PRES   REMARKS
ANTIGO         PTSUNNY   70  51  51 W5        30.05F
STURGEON BAY   SUNNY     68  45  42 S14       30.07F
GREEN BAY      PTSUNNY   76  52  43 VRB7      30.05F
MANITOWOC      SUNNY     68  43  40 S13       30.08F
APPLETON       PTSUNNY   73  50  43 VRB5      30.06F
CLINTONVILLE   PTSUNNY   75  46  35 SW5       30.04F
OSHKOSH        PTSUNNY   75  54  47 E8        30.04F
$$

WIZ032>034-041-042-053>061-250000-
SOUTHWEST WISCONSIN

CITY           SKY/WX    TMP DP  RH WIND       PRES   REMARKS
LA CROSSE      CLOUDY    80  58  46 SW7       30.03F HX  80
SPARTA         PTSUNNY   76  54  46 CALM      30.05F
VIROQUA        FAIR      74  58  57 SW5       30.07S
BOSCOBEL       PTSUNNY   78  57  48 S6        30.06F
PRAIRIE DU CHI PTSUNNY   77  57  50 S6        30.05F
PLATTEVILLE    FAIR      74  57  54 S6        30.08F
$$

WIZ056-057-062-063-064-067-068-250000-
SOUTH CENTRAL WISCONSIN

CITY           SKY/WX    TMP DP  RH WIND       PRES   REMARKS
BARABOO/DELLS  MOSUNNY   76  49  38 W5        30.06F
LONE ROCK      PTSUNNY   80  57  45 SW6       30.06F HX  80
WATERTOWN      SUNNY     74  54  48 S3        30.06F
MADISON        PTSUNNY   77  54  44 VRB3      30.07S
MIDDLETON      FAIR      77  51  39 SW5       30.07S
MONROE         PTSUNNY   73  54  49 S7        30.08S
JANESVILLE     PTSUNNY   79  48  34 SW5       30.07F
$$

WIZ051-052-058>065-066-070>072-250000-
SOUTHEAST WISCONSIN

CITY           SKY/WX    TMP DP  RH WIND       PRES   REMARKS
MILWAUKEE      MOSUNNY   68  44  42 SE10      30.09F
WAUKESHA       MOSUNNY   72  46  40 SE7       30.09F
MILWAUKEE/TIMM SUNNY     72  37  28 SE9       30.09F
RACINE         SUNNY     68  41  37 SE9       30.11F
BURLINGTON     SUNNY     71  50  48 E10       30.08F
KENOSHA        SUNNY     70  45  40 E7        30.10F
FOND DU LAC    MOSUNNY   75  52  44 VRB3      30.06F
SHEBOYGAN      SUNNY     69  45  41 SE9       30.08F
WEST BEND      PTSUNNY   68  45  42 SE8       30.08F
JUNEAU         SUNNY     74  46  37 S5        30.07F
$$

LSZ147-162-250000-
LAKE SUPERIOR

STATION/POSITION TIME  TEMP    WIND        PRES    WAVE
                       AIR SEA DIR/SP/G            HT/PER
                 (UTC) (F)     (DEG/KT/KT) (MB)    (FT/S)
$$

LMZ867-665-643>646-250000-
LAKE MICHIGAN

STATION/POSITION TIME  TEMP    WIND        PRES    WAVE
                       AIR SEA DIR/SP/G            HT/PER
                 (UTC) (F)     (DEG/KT/KT) (MB)    (FT/S)
$$

TC  - TEMPERATURE IN CELSIUS
VSB - VISIBILITY IN STATUTE MILES
WCI - WIND CHILL INDEX
HX  - HEAT INDEX



USA.gov is the U.S. government's official web portal to all federal, state and local government web resources and services.